Location: ???????
(55.4362°N, 38.1183°E)
Time: 09:29:53
(UTC+00:00)

Cosmos 1932 - Pass Details

Date: 27 October 2021
Orbit: 943 x 987 km, 65.0° (Epoch: 28 November)

Event Time Altitude Azimuth Distance (km) Brightness Sun altitude
Rises 15:11:36 0° 313° (NW) 3,619 8.1 -10.7°
Reaches altitude 10° 15:14:09 10° 311° (NW) 2,673 7.4 -11.1°
Maximum altitude 15:20:22 72° 229° (SW) 997 4.7 -11.9°
Drops below altitude 10° 15:26:35 10° 146° (SE) 2,679 6.5 -12.8°
Sets 15:29:08 0° 145° (SE) 3,628 7.2 -13.2°
